TimeEST,TemperatureF,Dew PointF,Humidity,Sea Level PressureIn,VisibilityMPH,Wind Direction,Wind SpeedMPH,Gust SpeedMPH,PrecipitationIn,Events,Conditions,WindDirDegrees,DateUTC
12:51 AM,46.0,42.1,86,30.25,10.0,North,8.1,-,0.01,,Mostly Cloudy,360,2012-11-16 05:51:00
1:51 AM,46.9,43.0,86,30.25,10.0,North,11.5,-,N/A,,Mostly Cloudy,10,2012-11-16 06:51:00
2:51 AM,46.9,42.1,83,30.24,10.0,North,13.8,-,N/A,,Overcast,10,2012-11-16 07:51:00
3:51 AM,46.9,41.0,80,30.25,10.0,North,11.5,18.4,N/A,,Mostly Cloudy,10,2012-11-16 08:51:00
4:51 AM,46.9,39.0,74,30.25,10.0,North,12.7,-,N/A,,Overcast,360,2012-11-16 09:51:00
5:51 AM,46.9,39.0,74,30.25,10.0,North,11.5,-,N/A,,Overcast,360,2012-11-16 10:51:00
6:51 AM,46.0,37.9,73,30.26,10.0,North,16.1,-,N/A,,Overcast,350,2012-11-16 11:51:00
7:23 AM,46.4,39.2,76,30.26,10.0,North,13.8,19.6,N/A,,Overcast,360,2012-11-16 12:23:00
7:51 AM,46.9,39.0,74,30.27,10.0,North,11.5,-,N/A,,Overcast,350,2012-11-16 12:51:00
8:51 AM,46.9,37.0,68,30.30,10.0,North,13.8,19.6,N/A,,Overcast,360,2012-11-16 13:51:00
9:44 AM,48.2,37.4,66,30.30,10.0,North,11.5,-,N/A,,Overcast,360,2012-11-16 14:44:00
9:51 AM,48.0,37.0,66,30.30,10.0,NNW,12.7,21.9,N/A,,Overcast,340,2012-11-16 14:51:00
10:51 AM,48.0,37.9,68,30.30,10.0,North,15.0,-,N/A,,Overcast,10,2012-11-16 15:51:00
11:51 AM,48.0,37.0,66,30.30,10.0,North,13.8,19.6,N/A,,Overcast,360,2012-11-16 16:51:00
12:20 PM,48.2,35.6,62,30.30,10.0,North,12.7,-,N/A,,Overcast,360,2012-11-16 17:20:00
12:51 PM,48.9,34.0,56,30.29,10.0,North,15.0,-,N/A,,Overcast,360,2012-11-16 17:51:00
1:51 PM,48.9,33.1,54,30.30,10.0,North,11.5,20.7,N/A,,Overcast,360,2012-11-16 18:51:00
2:51 PM,48.9,33.1,54,30.30,10.0,North,13.8,-,N/A,,Overcast,360,2012-11-16 19:51:00
3:51 PM,48.9,34.0,56,30.30,10.0,North,11.5,-,N/A,,Clear,10,2012-11-16 20:51:00
4:51 PM,46.9,35.1,63,30.32,10.0,North,12.7,18.4,N/A,,Clear,360,2012-11-16 21:51:00
5:51 PM,46.9,36.0,66,30.33,10.0,North,16.1,-,N/A,,Clear,10,2012-11-16 22:51:00
6:51 PM,46.9,35.1,63,30.35,10.0,North,15.0,20.7,N/A,,Clear,10,2012-11-16 23:51:00
7:51 PM,46.9,34.0,61,30.35,10.0,NNE,16.1,-,N/A,,Clear,30,2012-11-17 00:51:00
8:51 PM,46.9,32.0,56,30.37,10.0,NNE,15.0,-,N/A,,Clear,20,2012-11-17 01:51:00
9:51 PM,46.9,30.9,54,30.38,10.0,NNE,16.1,-,N/A,,Clear,30,2012-11-17 02:51:00
10:51 PM,46.0,30.9,56,30.39,10.0,NNE,15.0,-,N/A,,Clear,30,2012-11-17 03:51:00
11:51 PM,46.0,30.9,56,30.38,10.0,NNE,16.1,-,N/A,,Clear,30,2012-11-17 04:51:00